Location: Adavinekkalam
(16.6301°N, 80.7229°E)
Time: 20:25:51
(UTC+00:00)

Okean 1 Rocket - Pass Details

Date: 15 May 2026
Orbit: 600 x 626 km, 82.5° (Epoch: 7 June)

Event Time Altitude Azimuth Distance (km) Brightness Sun altitude
Rises 13:20:21 0° 163° (SSE) 2,859 6.1 -5.2°
Reaches altitude 10° 13:22:46 10° 153° (SSE) 1,961 5.2 -5.8°
Maximum altitude 13:26:33 30° 92° (E) 1,112 3.9 -6.6°
Drops below altitude 10° 13:30:22 10° 31° (NNE) 1,978 5.6 -7.4°
Sets 13:32:48 0° 20° (NNE) 2,888 6.5 -8.0°
